[[{"header":{"parameterUnit":"m.s-1","parameterCategory":1,"la1":30.2991,"la2":30.254,"lo1":-89.0895,"lo2":-89.0444,"dy":0.0017,"dx":0.0017,"nx":28,"ny":28,"refTime":"2025-04-29T21:00:00:Z","depth":0,"parameterNumber":2,"parameterNumberName":"U-component_of_WINDS"},"data":[0,0,0,0,0,0,0,0,0,0,0,0,0,0,0,0,0,0,0,0,0,0,0,0,0,0,0,0,0,0,0,0,0,0,0,0,0,0,0,0,0,0,0,0,0,0,0,0,0,0,0,0,0,0,0,0,0,0,-3.425,-3.4251,0,-3.4339,-3.434,-3.4341,-3.4314,-3.4312,-3.431,-3.4309,-3.4398,-3.4402,-3.4407,0,0,0,0,0,0,0,0,0,0,0,0,0,-3.4056,-3.406,-3.425,-3.4251,-3.4252,-3.4339,-3.434,-3.4341,-3.4315,-3.4312,-3.431,-3.4308,-3.4397,-3.4402,-3.4407,0,0,0,0,0,0,0,0,0,0,0,0,0,-3.4142,-3.4061,-3.425,-3.4249,-3.425,-3.4339,-3.434,-3.4342,-3.4315,-3.4312,-3.4309,-3.4307,-3.4395,-3.4401,-3.4408,-3.4501,0,0,-3.4426,-3.4429,0,0,0,0,0,0,0,0,-3.4137,-3.4149,-3.4248,-3.425,-3.4251,-3.4313,-3.4305,-3.4395,-3.4316,-3.429,-3.4309,-3.4305,-3.4372,-3.438,-3.4403,-3.4506,-3.451,-3.4427,-3.4431,-3.4433,-3.4435,0,0,0,0,0,0,0,-3.4131,-3.4145,-3.4285,-3.425,-3.4251,-3.4244,-3.4254,-3.4322,-3.4346,-3.4292,-3.4291,-3.4302,-3.4372,-3.4397,-3.4405,-3.4511,-3.4427,-3.4432,-3.4436,-3.4439,-3.4695,-3.4697,0,0,0,0,0,0,-3.4125,-3.414,-3.4282,-3.4288,-3.4186,-3.425,-3.426,-3.4296,-3.4345,-3.435,-3.4304,-3.43,-3.4388,-3.4397,-3.4408,-3.452,-3.4433,-3.4439,-3.4443,-3.4691,-3.4695,-3.4699,0,0,0,0,0,0,-3.4121,-3.4138,-3.4279,-3.4214,-3.4231,-3.4256,-3.4296,-3.4299,-3.4323,-3.4354,-3.4358,-3.4325,-3.4386,-3.4399,-3.4478,-3.4523,-3.4442,-3.4448,-3.4688,-3.4693,-3.4697,-3.4746,0,0,0,0,0,0,-3.4115,-3.4136,-3.4172,-3.4215,-3.4235,-3.4348,-3.4299,-3.4303,-3.4334,-3.433,-3.4374,-3.4379,-3.4385,-3.4469,-3.4484,-3.453,-3.4452,-3.4684,-3.469,-3.4695,-3.4741,-3.4752,-3.4762,0,0,0,0,0,-3.4108,-3.4183,-3.4174,-3.4192,-3.4281,-3.4351,-3.4362,-3.4368,-3.4338,-3.4374,-3.4394,-3.4377,-3.4516,-3.4478,-3.4495,-3.4542,-3.4681,-3.4688,-3.4695,-3.4736,-3.475,-3.4761,0,0,0,0,0,0,-3.4145,-3.4188,-3.4179,-3.427,-3.4307,-3.4346,-3.4392,-3.4382,-3.4428,-3.4423,-3.4427,-3.4437,-3.4518,-3.4539,-3.4495,-3.4636,-3.4594,-3.4605,-3.4619,-3.4633,-3.4643,-3.4636,-3.4458,0,0,0,0,0,-3.4163,-3.4217,-3.4252,-3.4328,-3.4348,-3.4367,-3.4398,-3.4399,-3.4437,-3.4453,-3.4478,-3.4515,-3.4567,-3.4601,-3.4651,-3.4744,-3.4753,-3.4785,-3.4796,-3.4804,-3.4813,-3.4863,-3.4877,-3.4721,-3.4721,-3.4721,0,0,-3.4202,-3.4232,-3.4266,-3.4337,-3.4365,-3.4421,-3.438,-3.444,-3.4481,-3.4462,-3.4538,-3.4558,-3.46,-3.4687,-3.4726,-3.4706,-3.4858,-3.4813,-3.4819,-3.4824,-3.4871,-3.4886,-3.4899,-3.4726,-3.4725,-3.4725,0,0,-3.43,-3.433,-3.4396,-3.4426,-3.447,-3.4482,-3.4498,-3.454,-3.4552,-3.4629,-3.4615,-3.4664,-3.4753,-3.4784,-3.4811,-3.4921,-3.4908,-3.4937,-3.4991,-3.504,-3.5052,-3.5063,-3.5102,-3.5115,-3.4946,-3.4946,-3.4947,0,-3.4343,-3.4426,-3.4431,-3.4493,-3.4524,-3.4509,-3.4576,-3.4605,-3.4663,-3.4684,-3.4661,-3.4773,-3.4801,-3.4894,-3.4921,-3.4944,-3.4961,-3.4932,-3.505,-3.5061,-3.5071,-3.5108,-3.5123,-3.495,-3.4949,-3.4949,-3.4949,0,-3.4475,-3.4533,-3.4581,-3.4638,-3.4675,-3.4738,-3.4753,-3.479,-3.4788,-3.4802,-3.488,-3.4913,-3.4969,-3.4991,-3.499,-3.5084,-3.507,-3.5049,-3.5007,-3.5089,-3.5124,-3.5138,-3.4954,-3.4953,-3.4952,-3.4951,0,0,-3.4598,-3.4657,-3.4675,-3.47,-3.4748,-3.4793,-3.4856,-3.491,-3.4941,-3.4982,-3.5034,-3.5111,-3.5091,-3.5122,-3.5124,-3.5167,-3.5251,-3.5141,-3.5142,-3.5159,-3.5356,-3.5371,-3.5387,-3.5243,-3.5246,-3.5248,-3.5352,0,-3.47,-3.4811,-3.4818,-3.4918,-3.4971,-3.4958,-3.5013,-3.5048,-3.5064,-3.5111,-3.5128,-3.5182,-3.5153,-3.5171,-3.5213,-3.5232,-3.5291,-3.5225,-3.5291,-3.5293,-3.528,-3.5405,-3.5421,-3.5517,-3.5366,-3.5368,-3.537,0,-3.4833,-3.4878,-3.4984,-3.5024,-3.5047,-3.5096,-3.5146,-3.5192,-3.5231,-3.5239,-3.5274,-3.527,-3.5334,-3.5291,-3.5379,-3.5334,-3.5362,-3.5375,-3.5379,-3.5384,-3.5335,-3.5412,-3.5548,-3.5562,-3.5391,-3.5389,-3.5388,0,-3.4911,-3.4998,-3.5073,-3.5095,-3.5144,-3.5178,-3.52,-3.5237,-3.5269,-3.5314,-3.5334,-3.5385,-3.5413,-3.5452,-3.5462,-3.543,-3.555,-3.5507,-3.5557,-3.5557,-3.5582,-3.558,-3.5723,-3.5602,-3.5602,-3.5602,-3.5601,0,-3.5024,-3.5088,-3.5108,-3.5154,-3.5226,-3.5233,-3.5304,-3.5324,-3.5357,-3.5405,-3.5398,-3.5444,-3.5454,-3.5502,-3.5511,-3.5581,-3.5594,-3.5602,-3.5603,-3.5602,-3.5601,-3.5619,-3.5612,-3.5606,-3.5605,-3.5604,-3.5603,0,-3.5122,-3.5138,-3.5218,-3.5258,-3.5269,-3.5321,-3.5354,-3.5398,-3.5413,-3.5475,-3.549,-3.5513,-3.5569,-3.5583,-3.5649,-3.5655,-3.5738,-3.5734,-3.5725,-3.5724,-3.5773,-3.5768,-3.5931,-3.5953,-3.5819,-3.5821,-3.5822,0,-3.5192,-3.5242,-3.5287,-3.5319,-3.5343,-3.5395,-3.5428,-3.5437,-3.5471,-3.552,-3.5557,-3.5613,-3.5657,-3.5747,-3.5769,-3.582,-3.5816,-3.587,-3.5823,-3.582,-3.5815,-3.5812,-3.5816,-3.5878,-3.5879,-3.5881,-3.5882,0,-3.5315,-3.532,-3.5368,-3.5419,-3.5458,-3.5498,-3.5537,-3.5564,-3.5578,-3.5617,-3.5674,-3.5709,-3.5777,-3.5831,-3.5883,-3.5905,-3.5896,-3.5896,-3.591,-3.5909,-3.5901,-3.5905,-3.5748,-3.5892,-3.5891,-3.589,-3.589,-3.5889,-3.5401,-3.5444,-3.5482,-3.5535,-3.5565,-3.5601,-3.5644,-3.5664,-3.5712,-3.5768,-3.5771,-3.5833,-3.5871,-3.5939,-3.5964,-3.6012,-3.5995,-3.6016,-3.6021,-3.6026,-3.6029,-3.5895,-3.6021,-3.6021,-3.6021,-3.6021,-3.602,0,-3.5522,-3.5546,-3.5595,-3.5649,-3.5691,-3.5679,-3.5721,-3.5756,-3.5811,-3.5847,-3.5891,-3.5957,-3.6009,-3.6036,-3.6088,-3.6122,-3.6119,-3.6135,-3.6132,-3.6137,-3.6042,-3.6024,-3.6137,-3.6137,-3.6137,-3.6137,-3.6137,-3.6136,-3.559,-3.5662,-3.5671,-3.5758,-3.5782,-3.5842,-3.5867,-3.59,-3.5929,-3.6002,-3.6046,-3.6063,-3.6096,-3.615,-3.6198,-3.6204,-3.6223,-3.6242,-3.6246,-3.6156,-3.6144,-3.6133,-3.6116,-3.6246,-3.6246,-3.6337,-3.6338,-3.6339]},{"header":{"parameterUnit":"m.s-1","parameterCategory":1,"la1":30.2991,"la2":30.254,"lo1":-89.0895,"lo2":-89.0444,"dy":0.0017,"dx":0.0017,"nx":28,"ny":28,"refTime":"2025-04-29T21:00:00:Z","depth":0,"parameterNumber":3,"parameterNumberName":"V-component_of_WINDS"},"data":[0,0,0,0,0,0,0,0,0,0,0,0,0,0,0,0,0,0,0,0,0,0,0,0,0,0,0,0,0,0,0,0,0,0,0,0,0,0,0,0,0,0,0,0,0,0,0,0,0,0,0,0,0,0,0,0,0,0,4.7811,4.7811,0,4.7827,4.7827,4.7827,4.7762,4.776,4.7758,4.7757,4.7771,4.7773,4.7775,0,0,0,0,0,0,0,0,0,0,0,0,0,4.7723,4.7725,4.7811,4.7811,4.7811,4.7827,4.7827,4.7827,4.7763,4.776,4.7758,4.7756,4.7771,4.7773,4.7776,0,0,0,0,0,0,0,0,0,0,0,0,0,4.7752,4.7725,4.7811,4.7781,4.7779,4.7827,4.7827,4.7827,4.7763,4.776,4.7757,4.7755,4.777,4.7773,4.7776,4.7853,0,0,4.7786,4.7787,0,0,0,0,0,0,0,0,4.775,4.7755,4.7785,4.7783,4.778,4.779,4.7801,4.7836,4.7764,4.7769,4.7757,4.7753,4.778,4.7782,4.7791,4.7854,4.7854,4.7786,4.7788,4.779,4.779,0,0,0,0,0,0,0,4.7748,4.7754,4.7817,4.7786,4.7783,4.7766,4.7767,4.7807,4.779,4.7768,4.7764,4.7766,4.7778,4.7788,4.7791,4.7855,4.7786,4.7789,4.7791,4.7792,4.7979,4.7982,0,0,0,0,0,0,4.7751,4.7753,4.7817,4.7818,4.7758,4.777,4.7771,4.779,4.7789,4.7787,4.7769,4.7763,4.7784,4.7787,4.7791,4.7879,4.779,4.7793,4.7794,4.7976,4.798,4.7983,0,0,0,0,0,0,4.7749,4.7757,4.7816,4.7784,4.779,4.7775,4.7796,4.7791,4.7801,4.779,4.7786,4.7783,4.7782,4.7787,4.7838,4.7879,4.7794,4.7797,4.7972,4.7977,4.7981,4.8057,0,0,0,0,0,0,4.7747,4.7757,4.7786,4.7785,4.7792,4.7863,4.7798,4.7794,4.7807,4.78,4.7802,4.7799,4.778,4.7833,4.7841,4.7882,4.7799,4.7969,4.7974,4.798,4.8051,4.8064,4.8075,0,0,0,0,0,4.7744,4.7807,4.7788,4.7796,4.7829,4.7866,4.787,4.7846,4.7811,4.784,4.7832,4.7799,4.7874,4.7839,4.7847,4.7889,4.7966,4.7973,4.7979,4.8045,4.8061,4.8074,0,0,0,0,0,0,4.7814,4.7807,4.7785,4.7851,4.7859,4.7855,4.7891,4.7864,4.7882,4.7875,4.7845,4.7846,4.7902,4.7901,4.7863,4.7963,4.7913,4.7922,4.7961,4.7976,4.7987,4.7985,4.7802,0,0,0,0,0,4.7837,4.7868,4.786,4.7918,4.7924,4.7907,4.7922,4.7903,4.7911,4.7914,4.791,4.7918,4.7942,4.796,4.7982,4.8051,4.8049,4.8084,4.8096,4.8106,4.8113,4.8147,4.8162,4.8005,4.8005,4.8005,0,0,4.7885,4.7885,4.7906,4.7932,4.7937,4.7968,4.791,4.7946,4.7969,4.7919,4.7966,4.7964,4.7971,4.8031,4.8057,4.8032,4.8157,4.8115,4.8123,4.8124,4.8156,4.8171,4.8184,4.801,4.8009,4.8008,0,0,4.7987,4.7992,4.8039,4.8045,4.8052,4.804,4.8052,4.8052,4.8048,4.8095,4.8058,4.8084,4.8129,4.8134,4.8143,4.8247,4.8216,4.8256,4.8317,4.8351,4.8363,4.8374,4.8408,4.8421,4.8263,4.8263,4.8263,0,4.8045,4.8092,4.8067,4.8105,4.8117,4.8074,4.8121,4.8128,4.8142,4.8151,4.8123,4.8176,4.8178,4.8237,4.8263,4.8272,4.8283,4.8254,4.8363,4.8374,4.8383,4.8416,4.843,4.8268,4.8267,4.8267,4.8266,0,4.8161,4.8194,4.8232,4.8247,4.8263,4.8306,4.8286,4.8306,4.8286,4.8277,4.8325,4.8325,4.8346,4.836,4.8341,4.8416,4.84,4.8369,4.8318,4.8403,4.8433,4.8446,4.8274,4.8273,4.8271,4.827,0,0,4.8307,4.8308,4.8321,4.8327,4.8332,4.8356,4.8396,4.8417,4.8433,4.8445,4.8476,4.8514,4.8485,4.8495,4.8476,4.8506,4.8586,4.847,4.847,4.849,4.8666,4.8688,4.8703,4.8566,4.8569,4.8571,4.8664,0,4.8406,4.8474,4.8453,4.8522,4.855,4.851,4.8544,4.8551,4.8543,4.8566,4.8558,4.8584,4.8545,4.855,4.8578,4.857,4.862,4.8563,4.8594,4.8595,4.859,4.8719,4.8742,4.8831,4.8676,4.8678,4.868,0,4.853,4.8545,4.8617,4.8615,4.8626,4.8658,4.8674,4.8697,4.8703,4.8695,4.8707,4.8681,4.872,4.8671,4.8722,4.8684,4.8695,4.8693,4.8696,4.8696,4.8641,4.872,4.8859,4.8871,4.8699,4.8697,4.8696,0,4.8625,4.8665,4.8712,4.8718,4.8718,4.8741,4.8742,4.8745,4.8758,4.8773,4.878,4.8799,4.8809,4.8824,4.8804,4.8771,4.8857,4.8808,4.8851,4.8851,4.8868,4.8867,4.9009,4.8881,4.8881,4.888,4.888,0,4.8736,4.8781,4.8755,4.8784,4.8832,4.8807,4.8855,4.8852,4.8855,4.8881,4.8848,4.8874,4.8847,4.887,4.8856,4.8899,4.8904,4.8898,4.8893,4.8899,4.89,4.8904,4.8897,4.8884,4.8883,4.8882,4.8882,0,4.8851,4.8835,4.8884,4.8879,4.8879,4.8915,4.8911,4.8937,4.8927,4.8961,4.8968,4.8953,4.8978,4.896,4.8986,4.8975,4.9031,4.9019,4.9029,4.9025,4.9068,4.9063,4.9215,4.9233,4.9096,4.9098,4.9099,0,4.8921,4.8954,4.8953,4.8969,4.8972,4.8997,4.901,4.8987,4.9002,4.901,4.9035,4.9057,4.9073,4.9115,4.9106,4.9125,4.9111,4.9163,4.9114,4.9119,4.9109,4.9106,4.9108,4.9172,4.9174,4.9175,4.9177,0,4.9047,4.9037,4.9057,4.9075,4.9091,4.9103,4.9113,4.9128,4.9104,4.9122,4.9147,4.916,4.9185,4.9207,4.9223,4.9223,4.9195,4.9193,4.9203,4.9209,4.9212,4.9208,4.9054,4.9189,4.9187,4.9186,4.9186,4.9185,4.9139,4.9166,4.9169,4.9192,4.9197,4.9207,4.923,4.9223,4.9244,4.9262,4.9247,4.9277,4.9281,4.9298,4.9302,4.9324,4.9302,4.9318,4.9322,4.9325,4.933,4.9211,4.9327,4.9327,4.9326,4.9326,4.9326,0,4.9261,4.9261,4.9282,4.9296,4.9314,4.9288,4.9297,4.9313,4.9339,4.9345,4.9362,4.939,4.9411,4.9404,4.9422,4.9441,4.9429,4.9446,4.9443,4.9443,4.935,4.9338,4.9456,4.9456,4.9456,4.9456,4.9456,4.9456,4.9326,4.9369,4.936,4.9404,4.9404,4.9432,4.9439,4.9447,4.9452,4.9484,4.9501,4.9497,4.9497,4.9514,4.9532,4.9529,4.9536,4.9558,4.9551,4.9463,4.945,4.9438,4.9426,4.9561,4.9561,4.9642,4.9643,4.9643]}]]